RYR5JD EGPH-EIDW

Flight info

Callsign RYR5JD
Flight time 0h 43m
Altitude 24000
Route GOSAM P600 TRN DCT BLACA P620 NIMAT NIMAT4L
Aircraft B738/M-SDE3FGILRWY/SB1

Departure

Time 2026-05-07 11:18
Airport Edinburgh Airport (EGPH)

Arrival

Time 2026-05-07 12:01
Airport Dublin Airport (EIDW)
Time Latitude Longitude Altitude Speed Heading
2026-05-07 10:34 55.95038 -3.36086 113 ft 0 kts 233°
2026-05-07 11:07 55.95039 -3.36084 115 ft 1 kts 233°
2026-05-07 11:07 55.95048 -3.36062 111 ft 3 kts 234°
2026-05-07 11:08 55.95060 -3.36033 112 ft 3 kts 233°
2026-05-07 11:08 55.95072 -3.36004 111 ft 3 kts 243°
2026-05-07 11:08 55.95078 -3.35971 112 ft 3 kts 267°
2026-05-07 11:08 55.95076 -3.35939 112 ft 2 kts 295°
2026-05-07 11:09 55.95074 -3.35930 112 ft 0 kts 298°
2026-05-07 11:12 55.95084 -3.35963 114 ft 6 kts 298°
2026-05-07 11:12 55.95104 -3.36053 114 ft 9 kts 287°
2026-05-07 11:13 55.95127 -3.36159 113 ft 9 kts 310°
2026-05-07 11:13 55.95180 -3.36140 114 ft 9 kts 57°
2026-05-07 11:13 55.95211 -3.36047 114 ft 9 kts 56°
2026-05-07 11:13 55.95243 -3.35957 113 ft 8 kts 58°
2026-05-07 11:14 55.95274 -3.35869 114 ft 8 kts 59°
2026-05-07 11:14 55.95302 -3.35782 114 ft 8 kts 58°
2026-05-07 11:14 55.95331 -3.35699 114 ft 8 kts 58°
2026-05-07 11:14 55.95357 -3.35617 114 ft 7 kts 69°
2026-05-07 11:15 55.95362 -3.35526 115 ft 7 kts 89°
2026-05-07 11:15 55.95366 -3.35439 115 ft 7 kts 70°
2026-05-07 11:15 55.95376 -3.35410 113 ft 0 kts 57°
2026-05-07 11:16 55.95377 -3.35407 113 ft 1 kts 57°
2026-05-07 11:17 55.95405 -3.35358 114 ft 9 kts 19°
2026-05-07 11:17 55.95466 -3.35403 114 ft 10 kts 328°
2026-05-07 11:17 55.95528 -3.35471 114 ft 11 kts 328°
2026-05-07 11:17 55.95569 -3.35556 112 ft 8 kts 266°
2026-05-07 11:18 55.95547 -3.35634 111 ft 17 kts 239°
2026-05-07 11:18 55.95349 -3.36219 107 ft 93 kts 238°
2026-05-07 11:18 55.94908 -3.37551 127 ft 153 kts 238°
2026-05-07 11:18 55.94360 -3.39200 948 ft 152 kts 236°
2026-05-07 11:19 55.93618 -3.41354 1978 ft 166 kts 234°
2026-05-07 11:19 55.92959 -3.43237 2443 ft 186 kts 234°
2026-05-07 11:19 55.92259 -3.45241 3082 ft 193 kts 235°
2026-05-07 11:19 55.91777 -3.46621 3515 ft 198 kts 236°
2026-05-07 11:20 55.90992 -3.48859 3738 ft 227 kts 236°
2026-05-07 11:20 55.90346 -3.51471 4385 ft 241 kts 255°
2026-05-07 11:20 55.90072 -3.54454 5224 ft 246 kts 257°
2026-05-07 11:20 55.89785 -3.57482 6069 ft 250 kts 257°
2026-05-07 11:21 55.89482 -3.60567 6867 ft 255 kts 257°
2026-05-07 11:21 55.89171 -3.63695 7697 ft 257 kts 257°
2026-05-07 11:21 55.88857 -3.66843 8536 ft 259 kts 257°
2026-05-07 11:21 55.88539 -3.70021 9355 ft 262 kts 257°
2026-05-07 11:22 55.88214 -3.73239 10089 ft 266 kts 257°
2026-05-07 11:22 55.87874 -3.76582 10399 ft 286 kts 257°
2026-05-07 11:22 55.87506 -3.80200 10575 ft 308 kts 257°
2026-05-07 11:22 55.87124 -3.84026 10834 ft 325 kts 258°
2026-05-07 11:23 55.86496 -3.87921 11357 ft 331 kts 240°
2026-05-07 11:23 55.84994 -3.90990 12064 ft 332 kts 217°
2026-05-07 11:23 55.83029 -3.93161 12802 ft 335 kts 211°
2026-05-07 11:23 55.80989 -3.95226 13525 ft 340 kts 210°
2026-05-07 11:24 55.78916 -3.97293 14198 ft 344 kts 210°
2026-05-07 11:24 55.76819 -3.99385 14863 ft 347 kts 210°
2026-05-07 11:24 55.74708 -4.01501 15560 ft 350 kts 210°
2026-05-07 11:24 55.72576 -4.03648 16228 ft 354 kts 211°
2026-05-07 11:25 55.70425 -4.05821 16867 ft 358 kts 211°
2026-05-07 11:25 55.68250 -4.08023 17529 ft 362 kts 211°
2026-05-07 11:25 55.66084 -4.10218 18187 ft 365 kts 211°
2026-05-07 11:25 55.63867 -4.12464 18758 ft 369 kts 211°
2026-05-07 11:26 55.61626 -4.14734 19309 ft 373 kts 211°
2026-05-07 11:26 55.59369 -4.17016 19915 ft 374 kts 211°
2026-05-07 11:26 55.57100 -4.19308 20487 ft 378 kts 211°
2026-05-07 11:26 55.54806 -4.21624 21015 ft 381 kts 211°
2026-05-07 11:27 55.52493 -4.23954 21555 ft 384 kts 211°
2026-05-07 11:27 55.50168 -4.26294 22201 ft 384 kts 211°
2026-05-07 11:27 55.47844 -4.28630 22782 ft 385 kts 210°
2026-05-07 11:27 55.45519 -4.30964 23168 ft 385 kts 210°
2026-05-07 11:28 55.43194 -4.33294 23417 ft 382 kts 210°
2026-05-07 11:28 55.40882 -4.35608 23670 ft 381 kts 210°
2026-05-07 11:28 55.38581 -4.37908 23898 ft 377 kts 210°
2026-05-07 11:28 55.36301 -4.40184 23965 ft 377 kts 210°
2026-05-07 11:29 55.34038 -4.42440 23981 ft 382 kts 210°
2026-05-07 11:29 55.31719 -4.44750 23957 ft 382 kts 210°
2026-05-07 11:29 55.29413 -4.47042 23978 ft 380 kts 210°
2026-05-07 11:29 55.27116 -4.49323 23974 ft 380 kts 210°
2026-05-07 11:30 55.24815 -4.51604 23966 ft 379 kts 210°
2026-05-07 11:30 55.22521 -4.53877 23974 ft 379 kts 210°
2026-05-07 11:30 55.20224 -4.56148 23960 ft 379 kts 210°
2026-05-07 11:30 55.17930 -4.58414 23978 ft 379 kts 210°
2026-05-07 11:31 55.15633 -4.60680 23965 ft 380 kts 209°
2026-05-07 11:31 55.13329 -4.62949 23975 ft 380 kts 209°
2026-05-07 11:31 55.11050 -4.65191 23976 ft 381 kts 209°
2026-05-07 11:31 55.08737 -4.67463 23966 ft 382 kts 209°
2026-05-07 11:32 55.04094 -4.72015 23977 ft 383 kts 209°
2026-05-07 11:32 55.01771 -4.74288 23973 ft 383 kts 209°
2026-05-07 11:32 54.99446 -4.76560 23976 ft 383 kts 209°
2026-05-07 11:33 54.97124 -4.78827 23978 ft 383 kts 209°
2026-05-07 11:33 54.94801 -4.81090 23974 ft 383 kts 209°
2026-05-07 11:33 54.92478 -4.83351 23972 ft 383 kts 209°
2026-05-07 11:33 54.90154 -4.85610 23963 ft 383 kts 209°
2026-05-07 11:34 54.87831 -4.87865 23969 ft 383 kts 209°
2026-05-07 11:34 54.85536 -4.90090 23993 ft 383 kts 209°
2026-05-07 11:34 54.83208 -4.92343 23985 ft 383 kts 209°
2026-05-07 11:34 54.80880 -4.94594 23979 ft 383 kts 209°
2026-05-07 11:35 54.78552 -4.96842 23979 ft 383 kts 209°
2026-05-07 11:35 54.76223 -4.99087 23973 ft 383 kts 208°
2026-05-07 11:35 54.73899 -5.01325 23976 ft 383 kts 208°
2026-05-07 11:35 54.71572 -5.03563 23973 ft 382 kts 208°
2026-05-07 11:36 54.69249 -5.05794 23975 ft 382 kts 208°
2026-05-07 11:36 54.66924 -5.08024 23976 ft 382 kts 208°
2026-05-07 11:36 54.64601 -5.10249 23975 ft 382 kts 208°
2026-05-07 11:36 54.62276 -5.12474 23967 ft 382 kts 208°
2026-05-07 11:37 54.59950 -5.14696 23977 ft 382 kts 208°
2026-05-07 11:37 54.57624 -5.16915 23975 ft 382 kts 208°
2026-05-07 11:37 54.55327 -5.19103 23974 ft 383 kts 208°
2026-05-07 11:37 54.52994 -5.21323 23975 ft 383 kts 208°
2026-05-07 11:38 54.50661 -5.23541 23976 ft 384 kts 208°
2026-05-07 11:38 54.48321 -5.25762 23976 ft 384 kts 208°
2026-05-07 11:38 54.45983 -5.27978 23975 ft 384 kts 208°
2026-05-07 11:38 54.43645 -5.30191 23975 ft 384 kts 208°
2026-05-07 11:39 54.41303 -5.32405 23978 ft 384 kts 208°
2026-05-07 11:39 54.38964 -5.34613 23981 ft 384 kts 208°
2026-05-07 11:39 54.36629 -5.36816 23970 ft 384 kts 208°
2026-05-07 11:39 54.34289 -5.39019 23969 ft 384 kts 208°
2026-05-07 11:40 54.31982 -5.41189 23978 ft 383 kts 208°
2026-05-07 11:40 54.29659 -5.43371 23966 ft 376 kts 208°
2026-05-07 11:40 54.27403 -5.45489 23799 ft 366 kts 208°
2026-05-07 11:40 54.25190 -5.47563 23527 ft 360 kts 207°
2026-05-07 11:41 54.22998 -5.49614 23075 ft 357 kts 208°
2026-05-07 11:41 54.20831 -5.51638 22650 ft 353 kts 208°
2026-05-07 11:41 54.18689 -5.53637 22247 ft 349 kts 208°
2026-05-07 11:41 54.16568 -5.55615 21817 ft 346 kts 208°
2026-05-07 11:42 54.14462 -5.57575 21413 ft 343 kts 208°
2026-05-07 11:42 54.12406 -5.59488 21009 ft 340 kts 208°
2026-05-07 11:42 54.10339 -5.61409 20602 ft 337 kts 208°
2026-05-07 11:42 54.08285 -5.63316 20208 ft 335 kts 208°
2026-05-07 11:43 54.06245 -5.65208 19816 ft 333 kts 208°
2026-05-07 11:43 54.04218 -5.67086 19426 ft 331 kts 208°
2026-05-07 11:43 54.02204 -5.68950 19036 ft 329 kts 208°
2026-05-07 11:43 54.00194 -5.70807 18645 ft 328 kts 208°
2026-05-07 11:44 53.98197 -5.72649 18254 ft 326 kts 209°
2026-05-07 11:44 53.96116 -5.74147 17783 ft 326 kts 193°
2026-05-07 11:44 53.93899 -5.74541 17417 ft 324 kts 184°
2026-05-07 11:44 53.91651 -5.74689 17030 ft 322 kts 183°
2026-05-07 11:45 53.89418 -5.74804 16639 ft 320 kts 183°
2026-05-07 11:45 53.87199 -5.74923 16225 ft 319 kts 184°
2026-05-07 11:45 53.84991 -5.75054 15833 ft 317 kts 184°
2026-05-07 11:45 53.82794 -5.75196 15482 ft 314 kts 184°
2026-05-07 11:46 53.80613 -5.75344 15112 ft 314 kts 184°
2026-05-07 11:46 53.78433 -5.75496 14731 ft 313 kts 184°
2026-05-07 11:46 53.76286 -5.75647 14363 ft 312 kts 184°
2026-05-07 11:46 53.74117 -5.75800 13991 ft 312 kts 184°
2026-05-07 11:47 53.71954 -5.75952 13592 ft 311 kts 184°
2026-05-07 11:47 53.69797 -5.76104 13177 ft 310 kts 184°
2026-05-07 11:47 53.67660 -5.76432 12759 ft 308 kts 195°
2026-05-07 11:47 53.65760 -5.78004 12391 ft 305 kts 218°
2026-05-07 11:48 53.64336 -5.80626 12026 ft 304 kts 236°
2026-05-07 11:48 53.63493 -5.83889 11641 ft 306 kts 253°
2026-05-07 11:48 53.63003 -5.87367 11272 ft 305 kts 255°
2026-05-07 11:48 53.62557 -5.90860 10886 ft 304 kts 256°
2026-05-07 11:49 53.62120 -5.94294 10519 ft 304 kts 255°
2026-05-07 11:49 53.61673 -5.97754 10287 ft 298 kts 255°
2026-05-07 11:49 53.61232 -6.01114 10141 ft 290 kts 255°
2026-05-07 11:49 53.60798 -6.04383 9997 ft 282 kts 255°
2026-05-07 11:50 53.60367 -6.07586 9695 ft 280 kts 255°
2026-05-07 11:50 53.59936 -6.10772 9377 ft 279 kts 255°
2026-05-07 11:50 53.59505 -6.13944 9064 ft 277 kts 255°
2026-05-07 11:50 53.59079 -6.17087 8852 ft 272 kts 255°
2026-05-07 11:51 53.58738 -6.20167 8604 ft 270 kts 258°
2026-05-07 11:51 53.58450 -6.23240 8368 ft 262 kts 258°
2026-05-07 11:51 53.58176 -6.26225 8145 ft 254 kts 258°
2026-05-07 11:51 53.57908 -6.29119 7921 ft 246 kts 258°
2026-05-07 11:52 53.57642 -6.31928 7614 ft 243 kts 258°
2026-05-07 11:52 53.57374 -6.34713 7366 ft 239 kts 258°
2026-05-07 11:52 53.57109 -6.37447 7125 ft 234 kts 258°
2026-05-07 11:52 53.56848 -6.40125 6876 ft 230 kts 258°
2026-05-07 11:53 53.56587 -6.42780 6654 ft 229 kts 258°
2026-05-07 11:53 53.56327 -6.45421 6440 ft 229 kts 258°
2026-05-07 11:53 53.56067 -6.48048 6206 ft 226 kts 258°
2026-05-07 11:53 53.55814 -6.50604 5984 ft 224 kts 258°
2026-05-07 11:54 53.55559 -6.53178 5779 ft 223 kts 258°
2026-05-07 11:54 53.55301 -6.55755 5533 ft 224 kts 258°
2026-05-07 11:54 53.55044 -6.58331 5325 ft 222 kts 257°
2026-05-07 11:54 53.54787 -6.60886 5107 ft 221 kts 258°
2026-05-07 11:55 53.54529 -6.63425 4900 ft 220 kts 256°
2026-05-07 11:55 53.53904 -6.65691 4659 ft 214 kts 224°
2026-05-07 11:55 53.52652 -6.66878 4546 ft 205 kts 190°
2026-05-07 11:55 53.51293 -6.66584 4415 ft 198 kts 154°
2026-05-07 11:56 53.50186 -6.65264 4283 ft 193 kts 144°
2026-05-07 11:56 53.49169 -6.63865 4149 ft 191 kts 143°
2026-05-07 11:56 53.48141 -6.62441 4057 ft 192 kts 143°
2026-05-07 11:56 53.47128 -6.61024 3957 ft 185 kts 143°
2026-05-07 11:57 53.46173 -6.59663 3842 ft 175 kts 143°
2026-05-07 11:57 53.45270 -6.58357 3691 ft 169 kts 143°
2026-05-07 11:57 53.44387 -6.57071 3558 ft 169 kts 143°
2026-05-07 11:57 53.43669 -6.55488 3367 ft 180 kts 108°
2026-05-07 11:58 53.43631 -6.53388 3178 ft 182 kts 95°
2026-05-07 11:58 53.43528 -6.51296 2924 ft 178 kts 101°
2026-05-07 11:58 53.43396 -6.49230 2679 ft 177 kts 99°
2026-05-07 11:58 53.43276 -6.47201 2450 ft 177 kts 101°
2026-05-07 11:59 53.43158 -6.45152 2196 ft 176 kts 99°
2026-05-07 11:59 53.43043 -6.43122 1945 ft 174 kts 100°
2026-05-07 11:59 53.42929 -6.41125 1724 ft 169 kts 99°
2026-05-07 11:59 53.42822 -6.39217 1522 ft 157 kts 99°
2026-05-07 12:00 53.42717 -6.37379 1286 ft 157 kts 99°
2026-05-07 12:00 53.42616 -6.35600 1065 ft 150 kts 99°
2026-05-07 12:00 53.42512 -6.33880 840 ft 146 kts 101°
2026-05-07 12:00 53.42416 -6.32246 675 ft 141 kts 98°
2026-05-07 12:01 53.42326 -6.30618 487 ft 140 kts 96°
2026-05-07 12:01 53.42241 -6.28986 291 ft 142 kts 96°
2026-05-07 12:01 53.42159 -6.27454 231 ft 108 kts 95°
2026-05-07 12:01 53.42113 -6.26649 230 ft 41 kts 95°
2026-05-07 12:02 53.42104 -6.26317 230 ft 21 kts 78°
2026-05-07 12:02 53.42180 -6.26110 225 ft 21 kts 45°
2026-05-07 12:02 53.42277 -6.25947 224 ft 19 kts 45°
2026-05-07 12:02 53.42368 -6.25789 224 ft 18 kts 46°
2026-05-07 12:03 53.42455 -6.25642 224 ft 18 kts 45°
2026-05-07 12:03 53.42540 -6.25498 224 ft 17 kts 46°
2026-05-07 12:03 53.42621 -6.25358 226 ft 16 kts 46°
2026-05-07 12:03 53.42686 -6.25248 224 ft 12 kts 45°
2026-05-07 12:04 53.42747 -6.25209 224 ft 9 kts 342°
2026-05-07 12:04 53.42801 -6.25246 224 ft 8 kts 337°
2026-05-07 12:04 53.42852 -6.25283 225 ft 8 kts 336°
2026-05-07 12:04 53.42902 -6.25320 226 ft 8 kts 336°
2026-05-07 12:05 53.42946 -6.25300 225 ft 7 kts 58°
2026-05-07 12:05 53.42963 -6.25245 224 ft 5 kts 68°
2026-05-07 12:05 53.42964 -6.25193 224 ft 5 kts 92°
2026-05-07 12:05 53.42962 -6.25140 224 ft 5 kts 96°
2026-05-07 12:06 53.42961 -6.25094 224 ft 4 kts 81°
2026-05-07 12:06 53.42982 -6.25078 225 ft 3 kts
2026-05-07 12:06 53.43005 -6.25075 224 ft 3 kts
2026-05-07 12:06 53.43019 -6.25073 224 ft 0 kts